Weather History for Florence, SC

Change the Weather History Date:

Wednesday, December 5, 2012

  Actual Average Record
Temperature  
Mean Temperature 67 °F 50 °F  
Max Temperature 77 °F 61 °F 82 °F (1998)
Min Temperature 56 °F 39 °F 21 °F (2000)
Degree Days  
Heating Degree Days 0 16  
Month to date heating degree days 16 76  
Since 1 July heating degree days 493 498  
Cooling Degree Days 2 0  
Month to date cooling degree days 2 0  
Year to date cooling degree days 2312 2059  
Growing Degree Days 15 (Base 50)    
Moisture  
Dew Point 54 °F    
Average Humidity 66    
Maximum Humidity 93    
Minimum Humidity 38    
Precipitation  
Precipitation 0.00 in 0.09 in 0.99 in (1977)
Month to date precipitation 0.00 0.45  
Year to date precipitation 37.52 40.35  
Sea Level Pressure  
Sea Level Pressure 30.16 in    
Wind  
Wind Speed 8 mph (NW)    
Max Wind Speed 16 mph    
Max Gust Speed 21 mph    
Visibility 10 miles    
Events      
T = Trace of Precipitation, MM = Missing Value Source: NWS Daily Summary

Daily Weather History Graph

Daily Weather History Graph

Search for Another Location

Airport:

Trip Planner

Search our weather history database for the weather conditions in past years. The results will help you decide how hot, cold, wet, or windy it might be!

Date:

Astronomy

Dec. 05, 2012 Rise Set
Actual Time 7:10 AM EST 5:09 PM EST
Civil Twilight 6:42 AM EST 5:36 PM EST
Nautical Twilight 6:11 AM EST 6:07 PM EST
Astronomical Twilight 5:41 AM EST 6:38 PM EST
Moon 11:43 PM EST (12/5) 11:45 AM EST (12/5)
Length of Visible Light 10h 53m
Length of Day
9h 58m
Waning Gibbous, 60% of the Moon is Illuminated
Dec 5
Waning Gibbous
Dec 6
Last Quarter
Dec 13
New
Dec 20
First Quarter
Dec 28
Full

Hourly Weather History & Observations

Time (EST) Temp. Dew Point Humidity Pressure Visibility Wind Dir Wind Speed Gust Speed Precip Events Conditions
12:53 AM 60.1 °F 55.9 °F 86% 30.21 in 10.0 mi SSW 6.9 mph - N/A   Clear
1:53 AM 60.1 °F 55.9 °F 86% 30.20 in 10.0 mi SSW 6.9 mph - N/A   Mostly Cloudy
2:53 AM 61.0 °F 55.9 °F 83% 30.19 in 10.0 mi SW 5.8 mph - N/A   Mostly Cloudy
3:53 AM 59.0 °F 54.0 °F 83% 30.18 in 10.0 mi SSW 4.6 mph - N/A   Clear
4:53 AM 55.9 °F 53.1 °F 90% 30.17 in 10.0 mi WSW 4.6 mph - N/A   Clear
5:53 AM 57.0 °F 53.1 °F 87% 30.18 in 10.0 mi SW 5.8 mph - N/A   Clear
6:53 AM 55.9 °F 53.1 °F 90% 30.19 in 10.0 mi WSW 5.8 mph - N/A   Clear
7:53 AM 57.9 °F 54.0 °F 87% 30.20 in 10.0 mi SW 5.8 mph - N/A   Clear
9:53 AM 68.0 °F 54.0 °F 61% 30.21 in 10.0 mi WSW 9.2 mph - N/A   Clear
10:53 AM 71.1 °F 52.0 °F 51% 30.19 in 10.0 mi SW 9.2 mph - N/A   Clear
11:53 AM 73.9 °F 48.9 °F 41% 30.17 in 10.0 mi West 11.5 mph - N/A   Clear
12:53 PM 75.9 °F 48.9 °F 38% 30.13 in 10.0 mi West 9.2 mph - N/A   Overcast
1:53 PM 75.0 °F 51.1 °F 43% 30.10 in 10.0 mi SW 8.1 mph - N/A   Overcast
2:53 PM 75.0 °F 53.1 °F 46% 30.09 in 10.0 mi WSW 8.1 mph - N/A   Overcast
3:53 PM 73.0 °F 54.0 °F 51% 30.09 in 10.0 mi WSW 4.6 mph - N/A   Overcast
4:53 PM 72.0 °F 55.0 °F 55% 30.09 in 10.0 mi Calm Calm - N/A   Overcast
5:53 PM 69.1 °F 57.9 °F 68% 30.11 in 10.0 mi North 9.2 mph - N/A   Overcast
6:53 PM 66.9 °F 57.9 °F 73% 30.12 in 10.0 mi NNE 9.2 mph - N/A   Overcast
7:36 PM 64.4 °F 59.0 °F 83% 30.14 in 10.0 mi NNE 11.5 mph - N/A   Overcast
7:49 PM 64.4 °F 59.0 °F 83% 30.15 in 10.0 mi NNE 10.4 mph - N/A   Overcast
7:53 PM 64.0 °F 59.0 °F 84% 30.15 in 10.0 mi NE 11.5 mph - N/A   Overcast
8:03 PM 64.4 °F 57.2 °F 77% 30.15 in 10.0 mi NE 10.4 mph 20.7 mph N/A   Overcast
8:53 PM 64.0 °F 57.0 °F 78% 30.16 in 10.0 mi NE 10.4 mph - N/A   Overcast
9:00 PM 62.6 °F 57.2 °F 82% 30.17 in 10.0 mi NE 8.1 mph - N/A   Overcast
9:10 PM 62.6 °F 55.4 °F 77% 30.17 in 10.0 mi NE 6.9 mph - N/A   Overcast
9:21 PM 62.6 °F 55.4 °F 77% 30.17 in 10.0 mi NE 10.4 mph - N/A   Overcast
9:53 PM 63.0 °F 52.0 °F 67% 30.17 in 10.0 mi NE 10.4 mph - N/A   Overcast
10:53 PM 62.1 °F 50.0 °F 65% 30.17 in 10.0 mi NNE 5.8 mph - N/A   Overcast
11:30 PM 60.8 °F 51.8 °F 72% 30.17 in 10.0 mi NE 9.2 mph - N/A   Overcast
11:53 PM 60.1 °F 51.1 °F 72% 30.17 in 10.0 mi ENE 12.7 mph - N/A   Overcast